Torna al catalogo

STARLINK-33780

AttivoComunicazioniVLEO
NORAD 63459·PAYLOAD·🇺🇸 United States

Lanciato Apr 4, 2025 da Vandenberg Space Force Base

Loading…

Prossimi Passaggi (prossime 24 ore)

TLE

AggiornatoSource: CelesTrak SupGP

Epoca: Sep 14, 2026, 22:41 UTC

1 63459C 25069AC  26257.94562500  .00004701  00000+0  13895-3 0  2579
2 63459  53.1589 335.8483 0001209  90.9116  19.6020 15.34377248    15

Traccia STARLINK-33780 in tempo reale con AllMySat

Download on the App Store